This is the latest recevied weather packets stored in our database for station/object TA3MHA. If no packets are shown the sender has not sent any weather packets the latest 10 day(s).
| Time | Temp. | Humidity | Pressure | Rain* | Wind** | Luminosity | Snow |
|---|---|---|---|---|---|---|---|
| 1776952201 | 12.22° C | 58% | - | 0 mm | - | 195 W/m² | - |
| 1776951901 | 12.22° C | 59% | - | 0 mm | - | 206 W/m² | - |
| 1776951601 | 12.22° C | 61% | - | 0 mm | - | 279 W/m² | - |
| 1776951301 | 12.22° C | 60% | - | 0 mm | - | 317 W/m² | - |
| 1776951001 | 12.22° C | 59% | - | 0 mm | - | 232 W/m² | - |
| 1776950701 | 13.33° C | 58% | - | 0 mm | - | 225 W/m² | - |
| 1776950401 | 12.78° C | 57% | - | 0 mm | - | 302 W/m² | - |
| 1776950101 | 12.78° C | 56% | - | 0 mm | - | 282 W/m² | - |
| 1776949800 | 12.22° C | 59% | - | 0 mm | - | 301 W/m² | - |
| 1776949501 | 12.22° C | 58% | - | 0 mm | - | 275 W/m² | - |
| 1776949200 | 12.22° C | 60% | - | 0 mm | - | 289 W/m² | - |
| 1776948900 | 12.22° C | 58% | - | 0 mm | - | 244 W/m² | - |
| 1776948600 | 13.33° C | 58% | - | 0 mm | - | 271 W/m² | - |
| 1776948300 | 13.33° C | 60% | - | 0 mm | - | 874 W/m² | - |
| 1776948001 | 13.33° C | 58% | - | 0 mm | - | 830 W/m² | - |
| 1776947700 | 13.33° C | 60% | - | 0 mm | - | 589 W/m² | - |
| 1776947400 | 12.78° C | 60% | - | 0 mm | - | 908 W/m² | - |
| 1776947100 | 12.22° C | 59% | - | 0 mm | - | 417 W/m² | - |
| 1776946802 | 12.22° C | 60% | - | 0 mm | - | 421 W/m² | - |
| 1776946500 | 12.22° C | 60% | - | 0 mm | - | 378 W/m² | - |
| 1776946201 | 12.22° C | 64% | - | 0 mm | - | 428 W/m² | - |
| 1776945901 | 12.22° C | 65% | - | 0 mm | - | 375 W/m² | - |
| 1776945600 | 11.67° C | 67% | - | 0 mm | - | 340 W/m² | - |
| 1776945301 | 11.67° C | 67% | - | 0 mm | - | 312 W/m² | - |
| 1776945000 | 11.11° C | 67% | - | 0 mm | - | 278 W/m² | - |
* Rain latest hour (hover to see other rain measurements)
** Current wind speed in m/s (hover to see current wind gust speed)